Content
SEND FEEDBACK

Daily
Averages
Monthly
Summary
United States of America

AGAT, GUAM


Home > North America > United States > Guam
Elevation: 364 feet     Latitude: 13 33N     Longitude: 144 50E

WEATHER
 
SELECT A DAY
Number of Records: 208,997;   Date Range: 1/1/95 - 7/26/14
 
SHARE

PRINT THIS DATA

[ ← Previous Day ]
WEATHER ALMANAC - MARCH 12, 2014
[ Next Day → ]
[ °C ]   °F
Weather ElementAverageHighLow
Temperature81 °F84.9 °F (10:54 am)77 °F (1:54 am)
Dewpoint70.6 °F75.2 °F (12:21 pm)69.1 °F (4:54 pm)
Humidity70.8 %84 % (1:54 am)62 % (10:47 am)
Barometer29.98 in30.04 in (10:11 am)29.92 in (3:54 pm)
Wind Speed19.7 mph26.5 mph (12:21 pm)
Wind Gust35.7 mph (1:54 pm)
Weather ElementAverage
Visibility10 mi
Wind DirectionNE (50.6 °)

Weather ElementTotal
Precipitation---
Cooling Degree Days16 (Base 65)
Growing Degree Days31 (Base 50)
Averaged from 34 records on March 12, 2014
WEATHER CONDITIONS BREAKOUT
WIND DIRECTION BREAKOUT
WEATHER BY HOUR - MARCH 12, 2014
[ °C ]   °F
Local TimeTemperatureDewpointHumidityBarometerVisibilityWind DirectionWind SpeedGust SpeedPrecipitationEventsConditions
1:54 AM77.0 °F72.0 °F84 %29.98 in10.0 miENE (60°)11.5 mph28.8 mph0.00 inRainLight Rain
2:54 AM78.1 °F73.0 °F84 %29.97 in10.0 miNE (40°)15.0 mph21.9 mph0.00 inMostly Cloudy
3:54 AM78.1 °F71.1 °F79 %29.96 in10.0 miNE (40°)13.8 mphOvercast
4:54 AM78.1 °F72.0 °F81 %29.95 in10.0 miNE (50°)17.3 mph23.0 mph0.00 inOvercast
5:54 AM79.0 °F72.0 °F79 %29.96 in10.0 miNE (50°)15.0 mphOvercast
6:23 AM78.8 °F71.6 °F78 %29.99 in10.0 miNE (40°)19.6 mphMostly Cloudy
6:54 AM79.0 °F71.1 °F77 %29.99 in10.0 miNE (50°)17.3 mph25.3 mphScattered Clouds
7:54 AM80.1 °F71.1 °F74 %29.99 in10.0 miNE (50°)20.7 mph27.6 mphScattered Clouds
8:54 AM81.0 °F71.1 °F72 %30.01 in10.0 miNE (50°)21.9 mph29.9 mphScattered Clouds
9:54 AM82.9 °F71.1 °F67 %30.02 in10.0 miNE (50°)24.2 mph31.1 mphMostly Cloudy
10:11 AM82.4 °F71.6 °F70 %30.04 in10.0 miNE (40°)21.9 mph31.1 mphMostly Cloudy
10:47 AM84.2 °F69.8 °F62 %30.04 in10.0 miNE (50°)25.3 mph32.2 mphMostly Cloudy
10:54 AM84.9 °F71.1 °F63 %30.01 in10.0 miNE (50°)20.7 mph32.2 mphMostly Cloudy
11:54 AM84.9 °F71.1 °F63 %29.99 in10.0 miNE (40°)18.4 mph32.2 mph0.00 inOvercast
12:21 PM82.4 °F75.2 °F79 %30.00 in10.0 miNE (50°)26.5 mph33.4 mph0.00 inOvercast
12:54 PM82.0 °F71.1 °F69 %29.97 in10.0 miNE (50°)20.7 mph27.6 mph0.00 inOvercast
1:02 PM82.4 °F71.6 °F70 %29.99 in10.0 miNE (40°)18.4 mph28.8 mphOvercast
1:16 PM82.4 °F69.8 °F66 %29.98 in10.0 miNE (40°)26.5 mph34.5 mphOvercast
1:36 PM82.4 °F69.8 °F66 %29.98 in10.0 miNE (40°)21.9 mph29.9 mphOvercast
1:54 PM82.0 °F71.1 °F69 %29.94 in10.0 miNE (40°)25.3 mph35.7 mphOvercast
2:54 PM84.0 °F70.0 °F63 %29.93 in10.0 miNE (40°)25.3 mph34.5 mphMostly Cloudy
3:03 PM84.2 °F69.8 °F62 %29.95 in10.0 miNE (50°)24.2 mph34.5 mphMostly Cloudy
3:54 PM82.0 °F70.0 °F67 %29.92 in10.0 miNE (40°)26.5 mph34.5 mphMostly Cloudy
4:54 PM82.0 °F69.1 °F65 %29.94 in10.0 miENE (60°)25.3 mph33.4 mphOvercast
5:25 PM82.4 °F69.8 °F66 %29.96 in10.0 miENE (60°)21.9 mph31.1 mphScattered Clouds
5:54 PM81.0 °F69.1 °F67 %29.94 in10.0 miENE (60°)20.7 mph28.8 mphMostly Cloudy
6:22 PM80.6 °F69.8 °F70 %29.98 in10.0 miENE (70°)17.3 mphOvercast
6:40 PM80.6 °F69.8 °F70 %29.98 in10.0 miENE (60°)18.4 mph24.2 mphOvercast
6:54 PM80.1 °F69.1 °F69 %29.96 in10.0 miENE (60°)18.4 mphOvercast
7:54 PM80.1 °F69.1 °F69 %29.98 in10.0 miENE (60°)13.8 mphOvercast
8:54 PM79.0 °F69.1 °F72 %29.99 in10.0 miNE (50°)15.0 mphMostly Cloudy
9:54 PM79.0 °F69.1 °F72 %30.01 in10.0 miENE (70°)15.0 mphMostly Cloudy
10:54 PM79.0 °F69.1 °F72 %30.00 in10.0 miENE (60°)15.0 mph23.0 mphOvercast
11:54 PM79.0 °F69.1 °F72 %29.99 in10.0 miENE (60°)11.5 mph21.9 mphOvercast
Hourly data recorded from PGUM, located miles away from Agat, Guam







STORIES FROM OUR PARTNERS